Time,TemperatureF,DewpointF,PressureIn,WindDirection,WindDirectionDegrees,WindSpeedMPH,WindSpeedGustMPH,Humidity,HourlyPrecipIn,Conditions,Clouds,dailyrainin,SolarRadiationWatts/m^2,SoftwareType,DateUTC
2013-02-10 00:01:00,14.3,-1.4,30.17,WNW,303,6.0,22.0,49,0.00,,CLR,0.00,0.00,VWS V14.01,2013-02-10 05:01:00,
2013-02-10 00:11:00,14.3,-1.4,30.17,NNE,19,2.0,17.0,49,0.00,,CLR,0.00,0.00,VWS V14.01,2013-02-10 05:11:00,
2013-02-10 00:21:00,14.4,-0.8,30.18,NNW,335,5.0,20.0,50,0.00,,CLR,0.00,0.00,VWS V14.01,2013-02-10 05:21:00,
2013-02-10 00:31:00,14.3,-1.4,30.18,WNW,296,9.0,20.0,49,0.00,,CLR,0.00,0.00,VWS V14.01,2013-02-10 05:31:00,
2013-02-10 00:41:00,14.4,-1.3,30.18,NNW,341,8.0,21.0,49,0.00,,CLR,0.00,0.00,VWS V14.01,2013-02-10 05:41:00,
2013-02-10 00:51:00,14.1,-1.1,30.18,North,359,7.0,24.0,50,0.00,,CLR,0.00,0.00,VWS V14.01,2013-02-10 05:51:00,
2013-02-10 01:01:00,14.0,-1.6,30.20,NNE,17,5.0,20.0,49,0.00,,CLR,0.00,0.00,VWS V14.01,2013-02-10 06:01:00,
2013-02-10 01:11:00,14.0,-1.6,30.20,NNW,342,2.0,13.0,49,0.00,,CLR,0.00,0.00,VWS V14.01,2013-02-10 06:11:00,
2013-02-10 01:21:00,14.0,-2.5,30.21,West,281,5.0,18.0,47,0.00,,CLR,0.00,0.00,VWS V14.01,2013-02-10 06:21:00,
2013-02-10 01:31:00,12.6,-2.5,30.21,WNW,284,6.0,16.0,50,0.00,,CLR,0.00,0.00,VWS V14.01,2013-02-10 06:31:00,
2013-02-10 01:41:00,13.3,-2.7,30.21,WNW,301,9.0,18.0,48,0.00,,CLR,0.00,0.00,VWS V14.01,2013-02-10 06:41:00,
2013-02-10 01:51:00,13.6,-2.9,30.21,WNW,302,9.0,16.0,47,0.00,,CLR,0.00,0.00,VWS V14.01,2013-02-10 06:51:00,
2013-02-10 02:01:00,14.0,-2.5,30.22,North,11,6.0,18.0,47,0.00,,CLR,0.00,0.00,VWS V14.01,2013-02-10 07:01:00,
2013-02-10 02:11:00,14.0,-3.4,30.22,North,0,3.0,10.0,45,0.00,,CLR,0.00,0.00,VWS V14.01,2013-02-10 07:11:00,
2013-02-10 02:21:00,13.3,-4.1,30.22,NNW,331,5.0,15.0,45,0.00,,CLR,0.00,0.00,VWS V14.01,2013-02-10 07:21:00,
2013-02-10 02:31:00,13.1,-3.8,30.21,NW,316,11.0,16.0,46,0.00,,CLR,0.00,0.00,VWS V14.01,2013-02-10 07:31:00,
2013-02-10 02:41:00,13.5,-3.9,30.21,NW,321,11.0,22.0,45,0.00,,CLR,0.00,0.00,VWS V14.01,2013-02-10 07:41:00,
2013-02-10 02:51:00,13.3,-4.1,30.20,WNW,301,16.0,20.0,45,0.00,,CLR,0.00,0.00,VWS V14.01,2013-02-10 07:51:00,
2013-02-10 03:01:00,13.1,-3.8,30.21,NW,304,17.0,20.0,46,0.00,,CLR,0.00,0.00,VWS V14.01,2013-02-10 08:01:00,
2013-02-10 03:11:00,13.1,-3.8,30.21,West,281,11.0,20.0,46,0.00,,CLR,0.00,0.00,VWS V14.01,2013-02-10 08:11:00,
2013-02-10 03:21:00,12.8,-4.1,30.22,WNW,282,12.0,21.0,46,0.00,,CLR,0.00,0.00,VWS V14.01,2013-02-10 08:21:00,
2013-02-10 03:31:00,12.3,-3.6,30.23,West,277,7.0,17.0,48,0.00,,CLR,0.00,0.00,VWS V14.01,2013-02-10 08:31:00,
2013-02-10 03:41:00,11.9,-4.4,30.23,West,260,6.0,13.0,47,0.00,,CLR,0.00,0.00,VWS V14.01,2013-02-10 08:41:00,
2013-02-10 03:51:00,11.9,-4.9,30.24,WNW,292,0.0,15.0,46,0.00,,CLR,0.00,0.00,VWS V14.01,2013-02-10 08:51:00,
2013-02-10 04:01:00,11.6,-5.2,30.24,NNE,28,0.0,16.0,46,0.00,,CLR,0.00,0.00,VWS V14.01,2013-02-10 09:01:00,
2013-02-10 04:11:00,11.2,-5.1,30.24,WNW,282,7.0,7.0,47,0.00,,CLR,0.00,0.00,VWS V14.01,2013-02-10 09:11:00,
2013-02-10 04:21:00,11.1,-4.8,30.24,WNW,287,7.0,13.0,48,0.00,,CLR,0.00,0.00,VWS V14.01,2013-02-10 09:21:00,
2013-02-10 04:31:00,11.2,-5.1,30.24,WNW,291,6.0,12.0,47,0.00,,CLR,0.00,0.00,VWS V14.01,2013-02-10 09:31:00,
2013-02-10 04:41:00,11.2,-5.1,30.24,West,262,5.0,15.0,47,0.00,,CLR,0.00,0.00,VWS V14.01,2013-02-10 09:41:00,
2013-02-10 04:51:00,11.4,-5.3,30.25,WNW,283,6.0,10.0,46,0.00,,CLR,0.00,0.00,VWS V14.01,2013-02-10 09:51:00,
2013-02-10 05:01:00,11.6,-5.6,30.25,WSW,239,4.0,12.0,45,0.00,,CLR,0.00,0.00,VWS V14.01,2013-02-10 10:01:00,
2013-02-10 05:11:00,10.7,-5.1,30.25,WSW,238,0.0,10.0,48,0.00,,CLR,0.00,0.00,VWS V14.01,2013-02-10 10:11:00,
2013-02-10 05:21:00,11.6,-5.2,30.27,WNW,286,12.0,12.0,46,0.00,,CLR,0.00,0.00,VWS V14.01,2013-02-10 10:21:00,
2013-02-10 05:31:00,11.7,-5.1,30.27,WNW,302,9.0,14.0,46,0.00,,CLR,0.00,0.00,VWS V14.01,2013-02-10 10:31:00,
2013-02-10 05:41:00,11.7,-5.1,30.27,West,281,9.0,16.0,46,0.00,,CLR,0.00,0.00,VWS V14.01,2013-02-10 10:41:00,
2013-02-10 05:51:00,11.7,-4.6,30.28,WNW,290,12.0,18.0,47,0.00,,CLR,0.00,0.00,VWS V14.01,2013-02-10 10:51:00,
2013-02-10 06:01:00,11.4,-5.3,30.28,WNW,288,2.0,19.0,46,0.00,,CLR,0.00,0.00,VWS V14.01,2013-02-10 11:01:00,
2013-02-10 06:11:00,11.1,-5.6,30.28,WNW,303,7.0,12.0,46,0.00,,CLR,0.00,0.00,VWS V14.01,2013-02-10 11:11:00,
2013-02-10 06:21:00,11.6,-5.6,30.29,NW,318,1.0,14.0,45,0.00,,CLR,0.00,0.00,VWS V14.01,2013-02-10 11:21:00,
2013-02-10 06:31:00,11.6,-5.2,30.30,WNW,295,5.0,13.0,46,0.00,,CLR,0.00,0.00,VWS V14.01,2013-02-10 11:31:00,
2013-02-10 06:41:00,11.6,-5.6,30.30,NW,308,4.0,13.0,45,0.00,,CLR,0.00,0.00,VWS V14.01,2013-02-10 11:41:00,
2013-02-10 06:51:00,11.2,-5.5,30.30,SW,230,4.0,7.0,46,0.00,,CLR,0.00,0.00,VWS V14.01,2013-02-10 11:51:00,
2013-02-10 07:11:00,11.4,-6.3,30.31,NNW,335,0.0,6.0,44,0.00,,CLR,0.00,9.00,VWS V14.01,2013-02-10 12:11:00,
2013-02-10 07:21:00,11.7,-6.0,30.31,WSW,243,4.0,4.0,44,0.00,,CLR,0.00,12.00,VWS V14.01,2013-02-10 12:21:00,
2013-02-10 07:31:00,12.1,-6.1,30.32,WSW,239,1.0,5.0,43,0.00,,CLR,0.00,14.00,VWS V14.01,2013-02-10 12:31:00,
2013-02-10 07:41:00,11.7,-6.5,30.32,SW,219,3.0,6.0,43,0.00,,CLR,0.00,18.00,VWS V14.01,2013-02-10 12:41:00,
2013-02-10 07:51:00,11.6,-4.7,30.33,SW,234,3.0,6.0,47,0.00,,CLR,0.00,21.00,VWS V14.01,2013-02-10 12:51:00,
2013-02-10 08:01:00,12.3,-5.4,30.33,WSW,248,11.0,13.0,44,0.00,,CLR,0.00,25.00,VWS V14.01,2013-02-10 13:01:00,
2013-02-10 08:11:00,12.8,-5.0,30.33,WSW,248,3.0,15.0,44,0.00,,CLR,0.00,26.00,VWS V14.01,2013-02-10 13:11:00,
2013-02-10 08:21:00,14.0,-5.9,30.34,WSW,244,4.0,9.0,40,0.00,,CLR,0.00,28.00,VWS V14.01,2013-02-10 13:21:00,
2013-02-10 08:31:00,14.6,-3.8,30.35,WSW,255,2.0,6.0,43,0.00,,CLR,0.00,30.00,VWS V14.01,2013-02-10 13:31:00,
2013-02-10 08:41:00,15.1,-5.9,30.35,West,262,10.0,11.0,38,0.00,,CLR,0.00,32.00,VWS V14.01,2013-02-10 13:41:00,
2013-02-10 08:51:00,15.9,-6.9,30.35,WSW,247,4.0,10.0,35,0.00,,CLR,0.00,91.00,VWS V14.01,2013-02-10 13:51:00,
2013-02-10 09:01:00,16.1,-5.0,30.35,WSW,245,0.0,7.0,38,0.00,,CLR,0.00,33.00,VWS V14.01,2013-02-10 14:01:00,
2013-02-10 09:11:00,17.0,-5.3,30.35,WSW,255,2.0,9.0,36,0.00,,CLR,0.00,35.00,VWS V14.01,2013-02-10 14:11:00,
2013-02-10 09:21:00,17.7,-5.3,30.35,WNW,282,5.0,5.0,35,0.00,,CLR,0.00,54.00,VWS V14.01,2013-02-10 14:21:00,
2013-02-10 09:31:00,18.6,-5.1,30.36,West,277,5.0,10.0,34,0.00,,CLR,0.00,206.00,VWS V14.01,2013-02-10 14:31:00,
2013-02-10 09:41:00,19.4,-5.0,30.36,WNW,286,5.0,14.0,33,0.00,,CLR,0.00,209.00,VWS V14.01,2013-02-10 14:41:00,
2013-02-10 09:51:00,20.5,-6.0,30.36,West,280,5.0,11.0,30,0.00,,CLR,0.00,144.00,VWS V14.01,2013-02-10 14:51:00,
2013-02-10 10:01:00,21.3,-4.0,30.36,SW,233,4.0,11.0,32,0.00,,CLR,0.00,146.00,VWS V14.01,2013-02-10 15:01:00,
2013-02-10 10:11:00,22.4,-5.0,30.36,WNW,297,9.0,16.0,29,0.00,,CLR,0.00,76.00,VWS V14.01,2013-02-10 15:11:00,
2013-02-10 10:21:00,23.0,-5.2,30.36,West,277,8.0,18.0,28,0.00,,CLR,0.00,294.00,VWS V14.01,2013-02-10 15:21:00,
2013-02-10 10:31:00,23.6,-4.0,30.37,West,276,9.0,16.0,29,0.00,,CLR,0.00,404.00,VWS V14.01,2013-02-10 15:31:00,
2013-02-10 10:41:00,24.2,-4.2,30.37,West,281,7.0,17.0,28,0.00,,CLR,0.00,522.00,VWS V14.01,2013-02-10 15:41:00,
2013-02-10 10:51:00,24.7,-3.0,30.37,West,271,10.0,16.0,29,0.00,,CLR,0.00,274.00,VWS V14.01,2013-02-10 15:51:00,
2013-02-10 11:01:00,25.1,-4.2,30.37,West,281,11.0,14.0,27,0.00,,CLR,0.00,76.00,VWS V14.01,2013-02-10 16:01:00,
2013-02-10 11:11:00,25.4,-3.9,30.37,West,272,14.0,16.0,27,0.01,,CLR,0.01,127.00,VWS V14.01,2013-02-10 16:11:00,
2013-02-10 11:21:00,26.3,-3.9,30.37,West,260,10.0,17.0,26,0.01,,CLR,0.01,436.00,VWS V14.01,2013-02-10 16:21:00,
2013-02-10 11:31:00,27.2,-2.3,30.36,WSW,256,8.0,16.0,27,0.02,,CLR,0.02,515.00,VWS V14.01,2013-02-10 16:31:00,
2013-02-10 11:41:00,27.9,-2.5,30.36,West,259,13.0,16.0,26,0.02,,CLR,0.02,501.00,VWS V14.01,2013-02-10 16:41:00,
2013-02-10 11:51:00,28.1,-1.6,30.36,West,268,6.0,17.0,27,0.02,,CLR,0.02,404.00,VWS V14.01,2013-02-10 16:51:00,
2013-02-10 12:01:00,28.7,-1.8,30.35,WSW,256,11.0,16.0,26,0.02,,CLR,0.02,483.00,VWS V14.01,2013-02-10 17:01:00,
2013-02-10 12:11:00,28.8,-1.8,30.35,West,259,17.0,22.0,26,0.03,,CLR,0.03,385.00,VWS V14.01,2013-02-10 17:11:00,
2013-02-10 12:21:00,29.0,0.0,30.35,NW,304,5.0,17.0,28,0.02,,CLR,0.03,290.00,VWS V14.01,2013-02-10 17:21:00,
2013-02-10 12:31:00,29.7,-2.7,30.34,WSW,248,12.0,12.0,24,0.02,,CLR,0.03,234.00,VWS V14.01,2013-02-10 17:31:00,
2013-02-10 12:41:00,30.1,-2.3,30.34,West,262,5.0,12.0,24,0.01,,CLR,0.03,204.00,VWS V14.01,2013-02-10 17:41:00,
2013-02-10 12:51:00,30.7,-1.8,30.34,WSW,256,11.0,13.0,24,0.01,,CLR,0.03,199.00,VWS V14.01,2013-02-10 17:51:00,
2013-02-10 13:01:00,30.7,-1.8,30.33,West,278,11.0,13.0,24,0.01,,CLR,0.03,225.00,VWS V14.01,2013-02-10 18:01:00,
2013-02-10 13:11:00,30.9,-0.8,30.33,West,274,5.0,12.0,25,0.01,,CLR,0.03,299.00,VWS V14.01,2013-02-10 18:11:00,
2013-02-10 13:21:00,31.3,1.2,30.32,West,279,2.0,11.0,27,0.01,,CLR,0.04,223.00,VWS V14.01,2013-02-10 18:21:00,
2013-02-10 13:31:00,31.0,0.9,30.32,NE,35,4.0,6.0,27,0.01,,CLR,0.04,236.00,VWS V14.01,2013-02-10 18:31:00,
2013-02-10 13:41:00,30.7,0.7,30.32,NE,42,4.0,7.0,27,0.02,,FEW002,0.05,193.00,VWS V14.01,2013-02-10 18:41:00,
2013-02-10 13:51:00,30.9,2.4,30.31,NE,53,8.0,9.0,29,0.02,,FEW002,0.05,274.00,VWS V14.01,2013-02-10 18:51:00,
2013-02-10 14:01:00,31.3,2.0,30.31,NE,47,5.0,9.0,28,0.02,,FEW002,0.05,313.00,VWS V14.01,2013-02-10 19:01:00,
2013-02-10 14:11:00,31.3,0.4,30.31,NE,51,5.0,7.0,26,0.03,,CLR,0.06,287.00,VWS V14.01,2013-02-10 19:11:00,
2013-02-10 14:21:00,32.2,4.3,30.30,ENE,61,6.0,7.0,30,0.04,,CLR,0.07,81.00,VWS V14.01,2013-02-10 19:21:00,
2013-02-10 14:31:00,31.2,1.9,30.30,NE,44,5.0,7.0,28,0.03,,CLR,0.07,67.00,VWS V14.01,2013-02-10 19:31:00,
2013-02-10 14:41:00,32.2,0.3,30.30,WSW,258,11.0,12.0,25,0.03,,CLR,0.07,239.00,VWS V14.01,2013-02-10 19:41:00,
2013-02-10 14:51:00,33.2,1.2,30.30,WSW,256,6.0,13.0,25,0.02,,CLR,0.07,258.00,VWS V14.01,2013-02-10 19:51:00,
2013-02-10 15:01:00,33.7,-0.2,30.30,West,269,3.0,10.0,23,0.03,,CLR,0.08,213.00,VWS V14.01,2013-02-10 20:01:00,
2013-02-10 15:11:00,32.9,3.4,30.30,West,267,4.0,6.0,28,0.03,,CLR,0.08,185.00,VWS V14.01,2013-02-10 20:11:00,
2013-02-10 15:21:00,32.9,2.6,30.31,West,266,5.0,11.0,27,0.03,,CLR,0.09,218.00,VWS V14.01,2013-02-10 20:21:00,
2013-02-10 15:31:00,32.2,-0.5,30.31,West,274,9.0,13.0,24,0.02,,CLR,0.09,128.00,VWS V14.01,2013-02-10 20:31:00,
2013-02-10 15:41:00,31.6,2.2,30.31,WSW,256,10.0,14.0,28,0.02,,CLR,0.09,69.00,VWS V14.01,2013-02-10 20:41:00,
2013-02-10 15:51:00,31.6,-0.2,30.32,West,259,9.0,14.0,25,0.02,,CLR,0.09,44.00,VWS V14.01,2013-02-10 20:51:00,
2013-02-10 16:01:00,30.9,1.6,30.32,West,266,6.0,12.0,28,0.02,,CLR,0.09,35.00,VWS V14.01,2013-02-10 21:01:00,
2013-02-10 16:11:00,30.3,1.1,30.32,WSW,255,4.0,7.0,28,0.01,,CLR,0.09,30.00,VWS V14.01,2013-02-10 21:11:00,
2013-02-10 16:21:00,30.1,3.1,30.33,WSW,244,1.0,7.0,31,0.01,,CLR,0.09,26.00,VWS V14.01,2013-02-10 21:21:00,
2013-02-10 16:31:00,30.6,-1.9,30.32,WSW,244,3.0,6.0,24,0.00,,CLR,0.09,21.00,VWS V14.01,2013-02-10 21:31:00,
2013-02-10 16:41:00,29.5,4.0,30.32,WSW,254,3.0,7.0,33,0.00,,CLR,0.09,16.00,VWS V14.01,2013-02-10 21:41:00,
2013-02-10 16:51:00,29.1,0.1,30.33,WSW,254,3.0,4.0,28,0.00,,CLR,0.09,12.00,VWS V14.01,2013-02-10 21:51:00,
2013-02-10 17:02:00,28.7,-3.5,30.33,WSW,254,0.0,4.0,24,0.00,,CLR,0.09,7.00,VWS V14.01,2013-02-10 22:02:00,
2013-02-10 17:11:00,27.6,0.2,30.33,WSW,254,0.0,3.0,30,0.00,,CLR,0.09,0.00,VWS V14.01,2013-02-10 22:11:00,
2013-02-10 17:21:00,26.3,7.4,30.32,WSW,254,2.0,2.0,44,0.00,,CLR,0.09,0.00,VWS V14.01,2013-02-10 22:21:00,
2013-02-10 17:31:00,25.8,1.3,30.33,WSW,254,1.0,3.0,34,0.00,,CLR,0.09,0.00,VWS V14.01,2013-02-10 22:31:00,
2013-02-10 17:41:00,24.1,9.0,30.33,WSW,254,0.0,3.0,52,0.00,,CLR,0.09,0.00,VWS V14.01,2013-02-10 22:41:00,
2013-02-10 17:51:00,23.8,7.9,30.34,WSW,254,0.0,0.0,50,0.00,,CLR,0.09,0.00,VWS V14.01,2013-02-10 22:51:00,
2013-02-10 18:01:00,23.3,7.0,30.34,WSW,254,0.0,0.0,49,0.00,,CLR,0.09,0.00,VWS V14.01,2013-02-10 23:01:00,
2013-02-10 18:11:00,23.6,7.7,30.34,WSW,254,0.0,0.0,50,0.00,,CLR,0.09,0.00,VWS V14.01,2013-02-10 23:11:00,
2013-02-10 18:21:00,23.3,8.3,30.34,WSW,254,2.0,3.0,52,0.00,,CLR,0.09,0.00,VWS V14.01,2013-02-10 23:21:00,
2013-02-10 18:31:00,23.2,7.8,30.33,WSW,254,0.0,2.0,51,0.00,,CLR,0.09,0.00,VWS V14.01,2013-02-10 23:31:00,
2013-02-10 18:41:00,23.3,2.0,30.33,WSW,254,0.0,0.0,39,0.00,,CLR,0.09,0.00,VWS V14.01,2013-02-10 23:41:00,
2013-02-10 18:51:00,22.9,7.1,30.33,WSW,254,3.0,3.0,50,0.00,,CLR,0.09,0.00,VWS V14.01,2013-02-10 23:51:00,
2013-02-10 19:01:00,21.8,9.3,30.33,WSW,254,0.0,4.0,58,0.00,,CLR,0.09,0.00,VWS V14.01,2013-02-11 00:01:00,
2013-02-10 19:11:00,19.7,10.2,30.33,WSW,254,0.0,0.0,66,0.00,,CLR,0.09,0.00,VWS V14.01,2013-02-11 00:11:00,
2013-02-10 19:21:00,19.5,8.6,30.34,WSW,254,0.0,0.0,62,0.00,,CLR,0.09,0.00,VWS V14.01,2013-02-11 00:21:00,
2013-02-10 19:31:00,20.2,8.9,30.34,WSW,254,3.0,4.0,61,0.00,,CLR,0.09,0.00,VWS V14.01,2013-02-11 00:31:00,
2013-02-10 19:41:00,19.1,10.6,30.34,WSW,254,0.0,3.0,69,0.00,,CLR,0.09,0.00,VWS V14.01,2013-02-11 00:41:00,
2013-02-10 19:51:00,19.1,10.0,30.34,WSW,254,0.0,1.0,67,0.00,,CLR,0.09,0.00,VWS V14.01,2013-02-11 00:51:00,
2013-02-10 20:01:00,18.8,8.3,30.34,WSW,254,0.0,0.0,63,0.00,,CLR,0.09,0.00,VWS V14.01,2013-02-11 01:01:00,
2013-02-10 20:11:00,18.3,8.5,30.34,WSW,254,0.0,2.0,65,0.00,,CLR,0.09,0.00,VWS V14.01,2013-02-11 01:11:00,
2013-02-10 20:21:00,17.3,7.2,30.33,WSW,254,0.0,2.0,64,0.00,,CLR,0.09,0.00,VWS V14.01,2013-02-11 01:21:00,
2013-02-10 20:31:00,16.7,7.7,30.33,WSW,254,0.0,3.0,67,0.00,,CLR,0.09,0.00,VWS V14.01,2013-02-11 01:31:00,
2013-02-10 20:41:00,17.0,8.3,30.33,WSW,254,3.0,5.0,68,0.00,,CLR,0.09,0.00,VWS V14.01,2013-02-11 01:41:00,
2013-02-10 20:51:00,14.8,6.8,30.33,WSW,254,0.0,4.0,70,0.00,,CLR,0.09,0.00,VWS V14.01,2013-02-11 01:51:00,
2013-02-10 21:01:00,14.9,6.9,30.32,WSW,254,0.0,0.0,70,0.00,,CLR,0.09,0.00,VWS V14.01,2013-02-11 02:01:00,
2013-02-10 21:11:00,17.0,7.3,30.32,WSW,254,0.0,0.0,65,0.00,,CLR,0.09,0.00,VWS V14.01,2013-02-11 02:11:00,
2013-02-10 21:21:00,18.0,6.5,30.33,WSW,254,2.0,3.0,60,0.00,,CLR,0.09,0.00,VWS V14.01,2013-02-11 02:21:00,
2013-02-10 21:31:00,16.4,7.4,30.33,WSW,254,1.0,2.0,67,0.00,,CLR,0.09,0.00,VWS V14.01,2013-02-11 02:31:00,
2013-02-10 21:41:00,15.9,7.5,30.33,WSW,254,2.0,2.0,69,0.00,,CLR,0.09,0.00,VWS V14.01,2013-02-11 02:41:00,
2013-02-10 21:51:00,15.4,7.7,30.33,WSW,254,0.0,2.0,71,0.00,,CLR,0.09,0.00,VWS V14.01,2013-02-11 02:51:00,
2013-02-10 22:01:00,15.4,6.7,30.33,WSW,254,0.0,3.0,68,0.00,,CLR,0.09,0.00,VWS V14.01,2013-02-11 03:01:00,
2013-02-10 22:11:00,14.8,8.0,30.33,WSW,254,0.0,0.0,74,0.00,,CLR,0.09,0.00,VWS V14.01,2013-02-11 03:11:00,
2013-02-10 22:21:00,13.8,6.2,30.32,WSW,254,0.0,0.0,71,0.00,,CLR,0.09,0.00,VWS V14.01,2013-02-11 03:21:00,
2013-02-10 22:31:00,13.5,6.2,30.33,WSW,254,0.0,0.0,72,0.00,,CLR,0.09,0.00,VWS V14.01,2013-02-11 03:31:00,
2013-02-10 22:41:00,13.3,6.0,30.33,WSW,254,2.0,3.0,72,0.00,,CLR,0.09,0.00,VWS V14.01,2013-02-11 03:41:00,
2013-02-10 22:51:00,12.6,5.9,30.33,WSW,254,0.0,2.0,74,0.00,,CLR,0.09,0.00,VWS V14.01,2013-02-11 03:51:00,
2013-02-10 23:01:00,10.9,4.6,30.33,WSW,254,0.0,3.0,75,0.00,,CLR,0.09,0.00,VWS V14.01,2013-02-11 04:01:00,
2013-02-10 23:11:00,10.5,4.7,30.33,WSW,254,0.0,0.0,77,0.00,,CLR,0.09,0.00,VWS V14.01,2013-02-11 04:11:00,
2013-02-10 23:21:00,11.1,5.6,30.33,WSW,254,0.0,0.0,78,0.00,,CLR,0.09,0.00,VWS V14.01,2013-02-11 04:21:00,
2013-02-10 23:31:00,12.3,5.9,30.32,WSW,254,0.0,0.0,75,0.00,,CLR,0.09,0.00,VWS V14.01,2013-02-11 04:31:00,
2013-02-10 23:41:00,11.2,4.5,30.32,WSW,254,0.0,3.0,74,0.00,,CLR,0.09,0.00,VWS V14.01,2013-02-11 04:41:00,
2013-02-10 23:51:00,10.4,4.3,30.33,WSW,254,0.0,0.0,76,0.00,,CLR,0.09,0.00,VWS V14.01,2013-02-11 04:51:00,